Airport Information

KNUW - Whidbey Island Nas Airport

KNUW 191756Z 24013KT 10SM FEW025 SCT040 BKN080 16/09 A3024 RMK AO2 SLP238 T01610089 10167 20133 58000 $


  • General Information

  • Coordinates: N 48°21'6"/ W 122°39'21"
  • Location: N/A
  • Surveyed Elevation: 47 MSL

Operations

Flow Name Active Runways Conditions

Green background denotes normal operations.


Common Frequencies

Callsign Frequency Position Name

More at the Document Center


Charts